Вернуться в каталог

CZ-3C DEB

LostGTO
NORAD 40176·DEBRIS·🇨🇳 China

Запущен Oct 31, 2010 с Xichang Satellite Launch Center

Loading…

TLE

УстаревшееSource: Space-Track

Эпоха: May 12, 2024, 12:53 UTC

1 40176U 10057AE  24133.53742382 -.00000077  00000-0  14213-1 0  9995
2 40176  19.8302 214.0517 7204961  17.9338   2.2291  2.07862492    10

Отслеживайте CZ-3C DEB в реальном времени с AllMySat

Download on the App Store